Regional Weather Roundup
Issued by NWS Grand Forks, ND

Home | Current Version | Previous Version | Text Only | Print | Product List | Glossary On
Versions: 1 2 3 4 5 6 7 8 9 10 11 12 13 14 15 16 17 18 19 20 21 22 23 24 25 26 27 28 29 30 31 32 33 34 35 36 37 38 39 40 41 42 43 44 45 46 47 48 49 50
000
ASUS43 KFGF 301531
RWRFGF
PRAIRIE TO PINES  WEATHER ROUNDUP
NATIONAL WEATHER SERVICE EASTERN NORTH DAKOTA/GRAND FORKS ND
1000 AM CDT SUN APR 30 2017

 **SATELLITE DATA USED TO AUGMENT SKY COVER AT AUTOMATED STATIONS**
 *****  WEATHER ACROSS EASTERN NORTH DAKOTA  *****

CITY           SKY/WX    TMP DP  RH WIND       PRES   REMARKS
GRAND FORKS    FAIR      51  32  48 S8        30.12F
GRAND FRKS AFB FAIR      52  30  42 S5        30.11F
DEVILS LAKE    FAIR      52  30  43 S6        30.09F
FARGO          FAIR      51  21  30 E9        30.11F
WAHPETON ARPT  FAIR      46  23  39 NE7       30.09F
$$

 ***** WEATHER ACROSS CENTRAL AND WESTERN NORTH DAKOTA  *****

CITY           SKY/WX    TMP DP  RH WIND       PRES   REMARKS
BISMARCK       FAIR      50  29  44 CALM      30.07F
MINOT          FAIR      58  24  27 S9        30.01F
JAMESTOWN      FAIR      52  28  39 N7        30.07F
MINOT AFB      FAIR      60  25  26 SW12      30.00F
GARRISON         N/A     49  24  37 S5        30.03F
WILLISTON      FAIR      51  28  41 S8        30.01F
DICKINSON      FAIR      52  24  33 VRB3      30.01F
HETTINGER      FAIR      52  25  35 VRB3      30.04F
$$

 *****  OTHER AIRPORT OBSERVATIONS IN OUR AREA  *****

CITY           SKY/WX    TMP DP  RH WIND       PRES   REMARKS
WALHALLA       NOT AVBL
GRAFTON AIRPOR FAIR      54  32  43 S8        30.12F
VALLEY CITY AR FAIR      52  23  32 E10       30.09F
CANDO          NOT AVBL
CAVALIER APRT  FAIR      52  32  46 S12       30.09F
GWINNER        SUNNY     46  28  49 MISG      30.07F
ROLLA          FAIR      54  27  35 SW9G15    30.05F
 ***** THE ABOVE OBSERVATIONS ARE NON NWS ARE NOT QUALITY
       CONTROLLED AND MAY MIS-REPORT RAIN FOR SNOW...
$$

  *****  WEATHER ACROSS NORTHERN MINNESOTA  *****

CITY           SKY/WX    TMP DP  RH WIND       PRES   REMARKS
FLAG ISLAND    FAIR      39  28  65 SE7       30.16S
WARROAD        FAIR      48  27  43 S7        30.15F
ROSEAU         FAIR      52  27  37 SE9       30.14F
HALLOCK        FAIR      54  23  30 S13       30.11F
THF RVR FALLS  FAIR      49  23  36 SE10      30.14F
BAUDETTE       FAIR      48  19  31 SE7       30.17S
WASKISH        PTSUNNY   50  23  34 E7        30.16F
CROOKSTON      FAIR      54  21  28 E6        30.13F
STEPHEN NDAWN    N/A     52  25  35 S10         N/A
GREENBUSH NDAW   N/A     50  27  40 S8          N/A
$$
  *****  WEATHER ACROSS CENTRAL AND WEST MINNESOTA  *****

CITY           SKY/WX    TMP DP  RH WIND       PRES   REMARKS
FOSSTON        FAIR      46  18  31 E7        30.13F
BEMIDJI        FAIR      46  21  37 E8        30.14S
PARK RAPIDS    FAIR      47  17  30 NE10      30.11F
ELBOW LAKE     FAIR      45  21  37 NE8       30.06F
WADENA         FAIR      45  21  39 E12       30.08F
DETROIT LAKES  FAIR      45  19  36 NE8       30.11F
MOORHEAD       FAIR      50  21  32 E8        30.11F
FERGUS FALLS   FAIR      48  19  32 E7        30.07F
MORRIS MN      FAIR      48  23  37 NE10      30.03F
STAPLES        FAIR      45  19  36 NE9G16    30.08S
$$
  *****  WEATHER ELSEWHERE ACROSS MINNESOTA  *****

CITY           SKY/WX    TMP DP  RH WIND       PRES   REMARKS
DULUTH         FAIR      43  21  41 E15       30.12R
INTRNTL FALLS  FAIR      46  20  35 SE8       30.18S
ELY            FAIR      46  18  31 E10G17    30.16R
CLOQUET        FAIR      43  18  36 E16G22    30.11S
WHEATON        FAIR      48  19  32 NE8       30.07F
BRAINERD       FAIR      41  21  44 NE13      30.09F
HIBBING        FAIR      44  20  38 E13       30.14R
ALEXANDRIA     FAIR      44  21  40 NE10      30.07F
SAINT CLOUD    CLOUDY    41  24  51 NE10      30.04F
MINNEAPOLIS    LGT RAIN  43  29  57 NE14      30.01F
$$

  *****  WEATHER ACROSS SOUTH DAKOTA  *****

CITY           SKY/WX    TMP DP  RH WIND       PRES   REMARKS
SIOUX FALLS    LGT RAIN  38  38 100 NE21G29   29.94F
BROOKINGS      FAIR      41  27  57 NE14      29.98F
WATERTOWN      FAIR      43  26  51 NE14      30.01F
HURON          FAIR      45  28  51 NE15      29.98F
SISSETON         N/A     50  26  39 E9        30.06F
ABERDEEN       FAIR      46  26  45 NE14      30.06F
MITCHELL       FAIR      45  28  51 NE20      29.96F
PIERRE         FAIR      49  28  44 NE13      30.00F
MOBRIDGE       FAIR      52  29  41 W3        30.03F
RAPID CITY     FAIR      49  23  36 N14       30.01F
$$

  *****  SOME WEATHER IN NEARBY STATES *****

CITY           SKY/WX    TMP DP  RH WIND       PRES   REMARKS
GLASGOW MT     PTSUNNY   53  30  41 S12G18    29.90F
GREAT FALLS MT PTSUNNY   48  31  51 SW15G23   29.94R
CHEYENNE WY    FAIR      38  15  39 NW30G41   29.97F
SCOTTSBLUFF NE FAIR      44  23  43 NW17      30.00S
OMAHA NE       LGT RAIN  41  36  82 NE20G29   29.70F FOG
DES MOINES IA  LGT RAIN  43  41  93 NE14      29.82R FOG
DAVENPORT IA   LGT RAIN  44  42  93 NE10      29.84R FOG
CHICAGO IL     LGT RAIN  45  43  93 NE9       29.79S FOG
EAU CLAIRE WI  CLOUDY    44  30  57 E15       30.01S
LA CROSSE WI   CLOUDY    45  34  65 E12       29.96S
$$

  *****  SOME NATIONAL WEATHER *****

CITY           SKY/WX    TMP DP  RH WIND       PRES   REMARKS
LA GUARDIA NY  CLOUDY    60  42  51 NE14      30.23F
RALEIGH NC     PTSUNNY   77  67  71 S12       30.20F
ATLANTA GA     DRIZZLE   71  68  90 S9        30.11F
NEW ORLEANS LA TSTM      79  73  82 S20G35    29.84R
OKLAHOMA CITY  DRIZZLE   44  37  76 SW15      29.59F
ALBUQUERQUE NM FAIR      40  34  79 VRB3      30.08R
SALT LAKE CITY CLOUDY    46  31  55 SE12      30.19S
LOS ANGELES CA FAIR      66  34  30 E6        30.07R
BOISE ID       CLOUDY    49  34  56 CALM      30.15R
SEATTLE WA     CLOUDY    47  44  90 SW14      30.21R
$$

*** WEATHER ACROSS MANITOBA...SASKATCHEWAN AND ONTARIO ***
                ***ONTARIO***

CITY           SKY/WX    TMP DP  RH WIND       PRES   REMARKS
GERALDTON      MOSUNNY   45  14  29 E5        30.25F
THUNDER BAY    PTSUNNY   41  27  56 E10       30.23S
SIOUX LOOKOUT  CLOUDY    46  16  29 S7        30.19F
TORONTO        CLOUDY    39  30  70 E20G26    30.19F
BIG TROUT LK   MOSUNNY   46  23  39 S9        30.13F
PICKLE LAKE    PTSUNNY   48  18  29 S9        30.19F
DRYDEN         CLOUDY    45  18  33 S7        30.18F
KENORA         PTSUNNY   45  21  39 S9        30.16F
$$
                *** MANITOBA***

CITY           SKY/WX    TMP DP  RH WIND       PRES   REMARKS
BRANDON        PTSUNNY   52  28  40 SW12      30.02F
DAUPHIN        LGT RAIN  50  34  53 VRB3      30.01F
ISLAND LAKE    MOSUNNY   48  25  40 W7        30.04F
PILOT MOUND      N/A     57  25  28 SW12        N/A
THE PAS        MOSUNNY   45  34  65 VRB2      30.01F
THOMPSON       MOSUNNY   45  23  42 SE3       30.05F
WINNIPEG       MOSUNNY   55  28  35 S15       30.08F
LYNN LAKE      SUNNY     45  23  42 S7        30.01F
CHURCHILL      MOSUNNY   39  25  56 SW15      30.03F
GILLAM         MOSUNNY   41  25  52 NE7       30.08F
$$
                ***SASKATCHEWAN***

CITY           SKY/WX    TMP DP  RH WIND       PRES   REMARKS
ESTEVAN        MOSUNNY   55  32  41 S13       29.98F
KINDERSLEY     CLOUDY    43  37  81 SE9       29.79F
LLOYDMINSTER   PTSUNNY   43  39  87 SE9       29.82S
PRINCE ALBERT  MOSUNNY   45  36  70 E8        29.92F
REGINA         CLOUDY    50  41  71 SE9       29.91F
YORKTON        MOSUNNY   52  37  58 S7        29.94F
N. BATTLEFORD  SUNNY     45  36  70 SE12      29.86F
LA RONGE       SUNNY     41  25  52 SE6       29.98S
SASKATOON      PTSUNNY   50  39  66 E10       29.87F
SWIFT CURRENT  CLOUDY    48  39  71 S8G20     29.83F
$$
NOTE: THESE ARE AUTOMATED STATIONS WITH LIMITED QUALITY CONTROL
      "FAIR" INDICATES FEW OR NO CLOUDS BELOW 12,000 FEET WITH NO
      SIGNIFICANT WEATHER AND/OR OBSTRUCTIONS TO VISIBILITY.
      SKY/WX - SKY CONDITION AND SIGNIFICANT WEATHER.
      TMP - AIR TEMPERATURE.    DP   - DEWPOINT TEMPERATURE.
      RH  - RELATIVE HUMIDITY.  PRES - PRESSURE.
      HX  - HEAT INDEX.         WCI  - WIND CHILL INDEX.
$



USA.gov is the U.S. government's official web portal to all federal, state and local government web resources and services.